Torna al catalogo

SL-3 DEB

AttivoPO
NORAD 17755·DEBRIS·🇷🇺 Russia

Lanciato Dec 14, 1982 da Plesetsk Cosmodrome

Loading…

Prossimi Passaggi (prossime 24 ore)

TLE

AggiornatoSource: Space-Track

Epoca: Sep 14, 2026, 09:25 UTC

1 17755U 82116D   26257.39240663  .00000027  00000-0  67158-5 0  9999
2 17755  81.2532 298.3020 0070021  97.9913 275.4889 14.14715970257534

Traccia SL-3 DEB in tempo reale con AllMySat

Download on the App Store